Weather History for Tyler, TX

Change the Weather History Date:

Monday, May 20, 2013

  Actual Average Record
Temperature  
Mean Temperature 81 °F 74 °F  
Max Temperature 89 °F 84 °F 94 °F (1921)
Min Temperature 72 °F 65 °F 47 °F (1981)
Degree Days  
Heating Degree Days 0 0  
Month to date heating degree days 43 6  
Since 1 July heating degree days 2013 2268  
Cooling Degree Days 16 9  
Month to date cooling degree days 127 141  
Year to date cooling degree days 243 253  
Growing Degree Days 31 (Base 50)    
Moisture  
Dew Point 68 °F    
Average Humidity 67    
Maximum Humidity 84    
Minimum Humidity 50    
Precipitation  
Precipitation 0.00 in 0.13 in 2.98 in (1983)
Month to date precipitation 1.43 3.02  
Year to date precipitation 11.99 17.18  
Snow  
Snow 0.00 in - - ()
Month to date snowfall 0.0  
Since 1 July snowfall 1.0  
Snow Depth 0.00 in    
Sea Level Pressure  
Sea Level Pressure 29.82 in    
Wind  
Wind Speed 16 mph (South)    
Max Wind Speed 28 mph    
Max Gust Speed 33 mph    
Visibility 10 miles    
Events      
T = Trace of Precipitation, MM = Missing Value Source: NWS Daily Summary

Daily Weather History Graph

Daily Weather History Graph

Search for Another Location

Airport:

Trip Planner

Search our weather history database for the weather conditions in past years. The results will help you decide how hot, cold, wet, or windy it might be!

Date:

Astronomy

May. 20, 2013 Rise Set
Actual Time 6:20 AM CDT 8:16 PM CDT
Civil Twilight 5:52 AM CDT 8:43 PM CDT
Nautical Twilight 5:19 AM CDT 9:16 PM CDT
Astronomical Twilight 4:44 AM CDT 9:52 PM CDT
Moon 3:40 PM CDT (5/20) 2:58 AM CDT (5/20)
Length of Visible Light 14h 50m
Length of Day
13h 56m
Waxing Gibbous, 75% of the Moon is Illuminated
May 20
Waxing Gibbous
May 24
Full
May 31
Last Quarter
Jun 8
New
Jun 16
First Quarter

Hourly Weather History & Observations

Time (CDT) Temp. Heat Index Dew Point Humidity Pressure Visibility Wind Dir Wind Speed Gust Speed Precip Events Conditions
12:53 AM 73.9 °F - 66.9 °F 79% 29.82 in 10.0 mi South 17.3 mph - N/A   Clear
1:53 AM 73.0 °F - 66.9 °F 81% 29.82 in 10.0 mi South 16.1 mph - N/A   Clear
2:32 AM 73.4 °F - 66.2 °F 78% 29.84 in 10.0 mi South 16.1 mph - N/A   Mostly Cloudy
2:53 AM 73.0 °F - 66.9 °F 81% 29.81 in 10.0 mi South 16.1 mph - N/A   Overcast
3:53 AM 73.0 °F - 66.9 °F 81% 29.80 in 10.0 mi South 15.0 mph - N/A   Mostly Cloudy
4:53 AM 73.0 °F - 66.9 °F 81% 29.81 in 10.0 mi South 12.7 mph 25.3 mph N/A   Scattered Clouds
5:53 AM 73.0 °F - 68.0 °F 84% 29.82 in 10.0 mi South 13.8 mph 24.2 mph N/A   Mostly Cloudy
6:26 AM 73.4 °F - 68.0 °F 83% 29.84 in 10.0 mi South 12.7 mph - N/A   Scattered Clouds
6:53 AM 73.0 °F - 68.0 °F 84% 29.83 in 10.0 mi South 15.0 mph - N/A   Partly Cloudy
7:12 AM 73.4 °F - 68.0 °F 83% 29.86 in 10.0 mi South 11.5 mph - N/A   Mostly Cloudy
7:53 AM 75.0 °F - 69.1 °F 82% 29.85 in 10.0 mi South 13.8 mph 24.2 mph N/A   Overcast
9:53 AM 79.0 °F - 69.1 °F 72% 29.87 in 10.0 mi South 18.4 mph 25.3 mph N/A   Overcast
10:09 AM 80.6 °F 83.9 °F 69.8 °F 70% 29.88 in 10.0 mi South 20.7 mph 28.8 mph N/A   Overcast
10:53 AM 81.0 °F 83.8 °F 68.0 °F 65% 29.86 in 9.0 mi SSW 23.0 mph 29.9 mph N/A   Mostly Cloudy
11:53 AM 82.9 °F 85.8 °F 68.0 °F 60% 29.86 in 10.0 mi South 18.4 mph 31.1 mph N/A   Mostly Cloudy
12:53 PM 84.9 °F 88.2 °F 68.0 °F 57% 29.85 in 10.0 mi South 17.3 mph 26.5 mph N/A   Mostly Cloudy
1:53 PM 86.0 °F 88.8 °F 66.9 °F 53% 29.83 in 10.0 mi South 20.7 mph 26.5 mph N/A   Scattered Clouds
2:53 PM 87.1 °F 89.9 °F 66.9 °F 51% 29.81 in 10.0 mi South 18.4 mph 25.3 mph N/A   Scattered Clouds
3:53 PM 89.1 °F 92.9 °F 68.0 °F 50% 29.78 in 10.0 mi South 18.4 mph 24.2 mph N/A   Scattered Clouds
4:53 PM 88.0 °F 90.7 °F 66.9 °F 49% 29.73 in 10.0 mi South 19.6 mph 26.5 mph N/A   Partly Cloudy
5:53 PM 88.0 °F 91.4 °F 68.0 °F 51% 29.73 in 10.0 mi South 15.0 mph 24.2 mph N/A   Clear
6:53 PM 84.9 °F 88.2 °F 68.0 °F 57% 29.73 in 10.0 mi South 12.7 mph 23.0 mph N/A   Clear
7:53 PM 82.9 °F 85.8 °F 68.0 °F 60% 29.76 in 10.0 mi South 8.1 mph - N/A   Clear
9:53 PM 80.1 °F 82.9 °F 69.1 °F 69% 29.80 in 10.0 mi South 13.8 mph - N/A   Clear
10:53 PM 80.1 °F 82.9 °F 69.1 °F 69% 29.81 in 10.0 mi South 18.4 mph 26.5 mph N/A   Clear
11:53 PM 78.1 °F - 69.1 °F 74% 29.82 in 10.0 mi South 17.3 mph - N/A   Clear